星链-36788(STARLINK-36788)

导读

STARLINK-36788是美国SpaceX星链星座中的卫星,于2026年2月15日发射,服务于星链全球卫星互联网项目。作为低轨卫星,它依托星链部署规模,为全球偏远地区、移动载体等提供高速宽带覆盖,进一步完善星链星座通信网络的覆盖密度与服务稳定性,延续星链在卫星互联网领域的布局拓展。

基本信息
目录编号:
67819
目录名称:
STARLINK-36788
国际标识:
2026-032Y
轨道中心:
EARTH
卫星名称:
星链-36788
卫星全名:
星链-36788(STARLINK-36788)
卫星状态:
在轨 (已飞行118 天)
发射日期:
2026-02-15 UTC
国别 :
美国 (US)
星等 :
--
轨道信息
数据来源 国际轨道数据
星历时间: 2026-06-13T02:45:24+0800
7小时前
查看轨道信息
半长轴: 6843.682km
偏心率: 0.0001132
轨道倾角: 97.289°
近地点辐角 103.940°
升交点赤经 351.610°
平近点角 256.197°
近地点: 464.77km
远地点: 466.32km
周期: 93.906分钟
每日圈数: 15.334445
详细信息
固有亮度:
5
最大亮度:
2.5
卫星平台:
Starlink V1.0
覆盖范围:
全球
运营商:
太空探索技术公司
运营商所在国:
美国
制造商(研发单位):
太空探索技术公司
制造商所在国:
美国
使用方式:
暂无
卫星简介
Starlink 计划是 SpaceX 推出的全球卫星互联网项目,通过发射低轨道卫星,为全球尤其是偏远地区提供高速、低延迟的互联网服务。自 2019 年起,Starlink 已部署数千颗卫星,旨在缩小全球数字鸿沟,推动互联网普及。该项目还为军事、航空等行业提供通信支持,带来广泛经济效益。
2D轨道图
3D轨道图
轨道高度分析图
轨道倾角分析图
轨道综合分析图
查看轨道综合分析图